Location: Star Hoppers Observatory
(42.7905°N, 83.6127°W)
Time: 16:15:56
(UTC-05:00)

Daily predictions for brighter satellites

Satellite Brightness Start Highest point End
(mag) Time Altitude Azimuth Time Altitude Azimuth Time Altitude Azimuth
IRS-1A Rocket 4.2 17:23:22 10° SSE 17:28:52 80° ENE 17:34:25 10° NNW
Cosmos 2082 Rocket 2.8 17:25:15 10° N 17:30:22 33° NE 17:35:27 10° ESE
IDEFIX/ARIANE 42P 2.8 17:27:50 10° SE 17:32:45 45° ENE 17:37:41 10° N
OE (NEXTSAT) 4.5 17:29:18 10° WSW 17:32:53 79° SSE 17:36:29 10° ENE
SL-8 Rocket 4.0 17:27:53 10° N 17:34:04 88° E 17:40:14 10° S
SL-27 R/B 3.9 17:31:15 10° NNW 17:34:46 45° WSW 17:38:13 10° S
Thor Agena Rocket 4.0 17:31:14 10° NNE 17:36:15 44° E 17:41:15 10° S
Tiangong 1 1.6 17:36:18 10° WSW 17:39:15 48° SSE 17:42:12 10° E
Cosmos 1743 4.2 17:36:34 10° NNE 17:39:17 18° ENE 17:41:58 10° ESE
Cosmos 1500 3.8 17:35:47 10° N 17:39:20 34° ENE 17:42:52 10° SE
Cosmos 2251 Rocket 3.9 17:34:15 10° NNW 17:39:35 74° WSW 17:44:52 10° S
Cosmos 375 4.3 17:35:56 10° NW 17:40:30 78° NE 17:44:20 10° SE
Cosmos 2366 rocket 4.0 17:41:17 10° N 17:47:40 83° E 17:53:57 10° S
AQUARIUS 4.1 17:46:11 10° SSE 17:50:38 64° ENE 17:55:06 10° N
Cosmos 1484 Rocket 3.7 17:51:40 10° SE 17:54:44 25° ENE 17:57:50 10° NNE
Cosmos 2218 Rocket 4.3 17:51:45 10° NNW 17:58:01 74° W 18:04:10 10° S
PAYLOAD A 4.3 17:54:13 10° S 17:59:02 69° WSW 18:04:06 10° NNW
Cosmos 1238 Rocket 2.8 17:56:14 10° SSW 17:59:09 56° W 18:02:20 10° N
Cosmos 1975 2.7 17:55:11 10° N 17:59:16 79° E 18:03:17 10° S
USA 234 3.3 17:53:20 10° NE 17:59:54 75° SE 18:06:26 10° SW
USA 116 4.4 17:57:53 10° NNE 18:03:18 86° ESE 18:08:21 10° SSW
Cosmos 1844 Rocket 4.2 18:01:04 10° WSW 18:06:03 32° NW 18:11:07 10° N
CZ-4 R/B 1.9 18:02:58 10° S 18:07:06 64° WSW 18:11:12 10° NNW
Meteor 1-13 Rocket 4.4 18:03:26 10° SSE 18:08:56 52° E 18:14:34 10° NNE
MSX 3.8 18:04:30 10° SSE 18:10:11 68° ENE 18:15:54 10° N
MOS 1 4.4 18:04:42 10° SSE 18:10:21 80° WSW 18:16:02 10° NNW
Abrixas 2.5 18:09:41 10° WNW 18:12:38 77° SSW 18:15:00 15° ESE
NOSS 3-4 (A) 4.1 18:06:32 10° NNW 18:13:12 46° NE 18:20:14 10° ESE
NOSS 3-4 (C) 4.1 18:06:38 10° NNW 18:13:17 46° NE 18:20:19 10° ESE
COSMO-SKYMED 1 3.1 18:09:49 11° NNE 18:13:42 36° E 18:17:42 10° SSE
CORIOLIS 4.2 18:08:56 10° SSE 18:14:21 87° WSW 18:19:46 10° NNW
MONITOR-E 4.3 18:11:31 10° SSE 18:14:37 52° ENE 18:17:45 10° N
Meteor 2-4 Rocket 4.3 18:10:07 10° SSE 18:14:48 32° E 18:19:06 12° NNE
CZ-2C R/B 2.8 18:10:18 10° S 18:15:19 73° WSW 18:20:30 10° NNW
Meteor 2-14 Rocket 4.5 18:10:37 10° N 18:16:42 58° ENE 18:22:43 10° SSE
Cosmos 1812 4.0 18:13:10 10° SSW 18:16:49 41° WNW 18:20:31 10° N
CZ-3B DEB 2.7 18:14:12 10° WSW 18:18:06 57° NNW 18:25:57 15° NE
COSMOS 2441 4.3 18:13:46 10° SSE 18:18:36 67° ENE 18:23:28 10° N
Cosmos 407 Rocket 4.4 18:15:32 10° N 18:19:47 25° ENE 18:21:59 19° E
NOSS 3-3 (A) 4.5 18:14:17 10° SW 18:20:26 61° NW 18:26:56 11° NNE
NOSS 3-3 (C) 4.5 18:14:23 10° SW 18:20:32 61° NW 18:27:01 11° NNE
Cosmos 1821 Rocket 4.1 18:15:16 10° N 18:21:09 47° ENE 18:26:59 10° SSE
Cosmos 2056 Rocket 4.3 18:16:35 10° SSE 18:21:17 32° E 18:23:51 21° NE
Timation 2 Rocket 4.2 18:16:12 10° NNW 18:23:05 90° ENE 18:29:59 10° SSE
Cosmos 921 Rocket 2.9 18:21:03 10° S 18:25:17 72° ESE 18:28:57 14° NNE
Cosmos 1025 Rocket 3.5 18:21:39 10° SSE 18:25:41 38° E 18:28:11 20° NE
Cosmos 1624 Rocket 4.3 18:29:19 10° S 18:34:13 44° ESE 18:36:48 25° NE
YAOGAN 1 3.9 18:34:29 10° S 18:38:36 42° W 18:42:44 10° NNW
Cosmos 1371 Rocket 4.0 18:34:35 10° S 18:39:52 63° ESE 18:43:24 21° NNE
Cosmos 2297 3.9 18:34:36 10° SSW 18:40:13 73° WNW 18:45:18 13° NNE
Meteor 2-21 Rocket 4.5 18:34:34 10° N 18:40:47 84° W 18:46:56 10° S
Meteor 2-16 Rocket 4.3 18:35:43 10° N 18:41:50 82° E 18:47:55 10° S
SKYMED 3 4.4 18:40:12 15° NNE 18:43:49 79° ESE 18:48:10 10° S
Nadezhda 3 Rocket 4.2 18:42:34 10° SSW 18:48:46 73° W 18:55:05 10° N
METEOR-M 4.3 18:44:16 10° SE 18:49:20 47° ENE 18:54:27 10° N
Cosmos 2278 Rocket 3.8 18:45:01 10° WSW 18:50:01 32° NW 18:55:04 10° N
SL-8 R/B 4.3 18:46:00 10° W 18:50:36 45° N 18:52:00 35° NE
Cosmos 1346 Rocket 4.4 18:48:23 10° SW 18:51:56 33° WNW 18:55:29 10° N
Cosmos 1666 2.5 18:49:52 10° N 18:53:44 71° E 18:57:36 10° SSE
BREEZE-M R/B 4.2 18:44:58 10° WSW 18:54:54 61° NNW 18:57:05 35° NE
GEOS 3 Rocket 3.6 19:00:07 44° E 19:01:20 55° NE 19:06:20 10° NNW
ISS -0.9 18:59:22 10° NW 19:00:43 16° NNW 19:00:43 16° NNW
SKYMED 2 3.9 18:58:26 16° N 19:01:50 67° WNW 19:06:07 10° SSW
Cosmos 1833 Rocket 3.5 19:01:52 10° NW 19:07:19 52° WSW 19:12:45 10° S
Cosmos 1727 Rocket 4.1 19:04:22 10° SSE 19:10:18 49° E 19:10:52 48° ENE
Cosmos 1190 Rocket 3.8 19:05:36 10° NNW 19:10:53 80° ENE 19:15:36 13° SSE
NOSS 2-1 (D) 4.3 19:08:35 10° WSW 19:12:19 44° NW 19:13:17 37° N
NOSS 2-1 (C) 4.2 19:09:15 10° WSW 19:13:00 45° NW 19:13:57 38° N
Cosmos 2082 Rocket 3.6 19:09:16 10° NW 19:14:29 39° WSW 19:19:42 10° S
Tiangong 1 2.9 19:12:20 10° W 19:14:01 30° W 19:14:01 30° W
Cosmos 1892 Rocket 3.7 19:13:42 10° S 19:17:15 59° S 19:17:15 59° S
Meteor 1-28 Rocket 3.7 19:21:16 59° WSW 19:21:16 59° WSW 19:24:42 10° SSW
FALCON 9 R/B 3.7 18:59:17 10° WSW 19:21:19 55° S 19:24:35 34° SE
Cosmos 1726 Rocket 3.7 19:20:09 10° NNW 19:24:38 74° W 19:29:04 10° S
Okean 2 4.1 19:26:49 10° SSW 19:30:08 51° SW 19:30:08 51° SW
Cosmos 1934 Rocket 4.5 19:27:32 10° NNW 19:33:39 60° W 19:39:48 10° S
USA 234 4.1 19:40:41 34° NNE 19:42:38 42° NNW 19:48:40 10° W
Cosmos 2369 Rocket 3.5 19:48:02 10° SSW 19:50:46 30° S 19:50:46 30° S
BREEZE M DEB (TANK) 4.4 20:11:13 10° WNW 20:16:10 68° SSW 20:18:05 56° SSE
ATLAS 3B CENTAUR R/B 4.5 20:08:28 10° W 20:20:48 28° SSW 20:23:21 24° S
CZ-3B DEB 4.4 20:47:50 10° WNW 20:53:53 43° N 20:53:53 43° N
